Flag for Germany Weather past 2 weeks in Rathenow, Brandenburg, Germany

Now
58 °F

Sunny.


Feels Like: 58 °F
Forecast: 38 / 62 °F
Wind: 2 mph from North

Location: Neuruppin

Current Time: Apr 19, 2015 at 7:42:29 PM

Latest Report: Apr 19, 2015 at 7:00 PM


Visibility: 6 mi

Pressure: 30.20 "Hg

Humidity: 40%

Dew point: 33 °F

Location of RathenowLocation

Historic Weather in Rathenow — Graph

°F

Rathenow temperature yesterday

Maximum temperature yesterday: 52 °F (at 4:00 PM)
Minimum temperature yesterday: 32 °F (at 6:00 AM)
Average temperature yesterday: 42 °F

Past Weeks' High & Low Weather Summary

 TemperatureHumidityPressure
High71 °F (Apr 15, 4:00 PM)100% (Apr 9, 8:00 AM)30.58 "Hg (Apr 9, 8:00 AM)
Low28 °F (Apr 7, 6:00 AM)28% (Apr 5, 4:00 PM)29.81 "Hg (Apr 15, 7:00 PM)
Average47 °F68%30.22 "Hg
* Reported Apr 4 6:00 PM — Apr 19 6:00 PM, Rathenow, Weather by CustomWeather, © 2015

Note: Actual official high and low records may vary slightly from our data, if they occured in-between our weather recording intervals... More about our weather records

Advertising

Rathenow weather history for previous 24 hours

 ConditionsComfort  
Time TempWeatherWind HumidityBarometerVisibility
6:00 PM
Sun, Apr 19
58 °FScattered clouds.3 mph40%30.20 "Hg6 mi
4:00 PM59 °FOvercast.1 mph42%30.21 "Hg6 mi
3:00 PM57 °FPartly sunny.1 mph41%30.23 "Hg6 mi
2:00 PM56 °FOvercast.2 mph42%30.23 "Hg6 mi
1:00 PM56 °FPartly sunny.1 mph45%30.23 "Hg6 mi
12:00 PM54 °FSunny.1 mph53%30.23 "Hg6 mi
10:00 AM49 °FSunny.1 mph61%30.23 "Hg6 mi
9:00 AM43 °FSunny.1 mph70%30.22 "Hg7 mi
8:00 AM38 °FPartly sunny.No wind77%30.22 "Hg6 mi
7:00 AM36 °FOvercast.No wind88%30.21 "Hg6 mi
6:00 AM36 °FOvercast.No wind77%30.19 "Hg6 mi
4:00 AM34 °FOvercast.1 mph83%30.20 "Hg6 mi
3:00 AM35 °FPassing clouds.No wind82%30.21 "Hg6 mi
2:00 AM34 °FOvercast.No wind84%30.22 "Hg6 mi
1:00 AM34 °FClear.1 mph82%30.22 "Hg6 mi
12:00 AM36 °FClear.1 mph74%30.23 "Hg6 mi
11:00 PM
Sat, Apr 18
39 °FClear.No wind73%30.23 "Hg6 mi
10:00 PM41 °FOvercast.1 mph70%30.23 "Hg6 mi
9:00 PM45 °FClear.1 mph55%30.24 "Hg6 mi
8:00 PM49 °FPassing clouds.3 mph46%30.23 "Hg6 mi
7:00 PM51 °FSunny.5 mph45%30.22 "Hg6 mi
Weather by CustomWeather, © 2015

See weather overviewHow to use our weather pages